Location: Castelnau
(43.6639°N, 0.8431°W)
Time: 16:01:56
(UTC+00:00)

GEOS 3 Rocket - Pass Details

Date: 13 January 2026
Orbit: 768 x 845 km, 115.0° (Epoch: 11 February)

Event Time Altitude Azimuth Distance (km) Brightness Sun altitude
Rises 05:19:30 0° 134° (SE) 3,298 7.6 -23.9°
Reaches altitude 10° 05:21:46 10° 132° (SE) 2,382 6.8 -23.5°
Maximum altitude 05:26:55 71° 49° (NE) 864 3.8 -22.6°
Enters shadow 05:29:30 31° 333° (NNW) 1,415 4.5 -22.1°
